Showing default

EUTE 28A (EB 1), 26719

Orbit data source: Space-Track

EUTE 28A (EB 1), 26719 is a payload satellite owned by Eutelsat (FR) in GEO that was launched on Thu, 08 Mar 2001 UTC via an ARIANE 5G launch vehicle from the French Guiana (FRGUI). Payload-class satellites include a variety of spacecraft equipped with specific instruments for various scientific and technological missions. These include communications satellites like Starlink; space stations such as the ISS; scientific satellites like the Hubble; Earth observation satellites from companies like Planet Labs, Umbra, and HawkEye 360; GPS; miniature CubeSats for education and research; and military/defense satellites.

Not visible in the next 10 days
Identifier
26719, 2001-011A
Orbit
GEO
Country
Flag of FRFR / EUTE
Related business
Manufacturer
Alcatel/Cannes
Mission
Non-operational Commercial Communications
Bus & Motor
SPACEBUS 3000B2, S400
Mass
3,050 kg wet, ~1,300 kg dry
Launch date (UTC)
2001-03-08 (25 years ago)
Launch vehicle
ARIANE 5G
Launch site
French Guiana (FRGUI)
Object type
Payload
Rocket body
Debris
Shape & HBR
Box + 2 Pan, 14.5 m
Radar Cross Section
27.172 m², Large (>1 m²)

Expand to show TLE details & history
Last TLE update: 15 hours ago

TLE from 15 hours ago
0 EUTE 28A (EB 1)
1 26719U 01011A   26124.72352446 -.00000252  00000-0  00000+0 0  9995
2 26719   7.2744  67.8466 0008134 307.4252 259.9804  0.98795195 91951
Epoch: 2026-05-04T17:21Z
TLE epoch observation values (Epoch: 2026-05-04T17:21:52.513Z)
Latitude
-3.34283°
Longitude
151.89847°
Altitude
36,211.927 km
Speed
3.059 km/s
True Right ascension
18h 19m 54s
True Declination
-3° 20' 22"
Sunlit
Object was in daylight at epoch
Visualization orbit readout
Latitude
Unknown
Longitude
Unknown
Altitude
Unknown
Speed
Unknown
Apparent Right ascension
Unknown
Apparent Declination
Unknown
Sunlit
N/A
Visualization observer readout
Local Sidereal Time
16:36:48
Azimuth
Unknown
Elevation
Unknown
Doppler factor
Unknown
Orbital elements
Apogee altitude
36,241.358 km
Perigee altitude
36,172.081 km
Semi-major axis
42,584.856 km
Eccentricity
0.00081
Inclination
7.2744°
RAAN
67.8466°
Arg. of periapsis
307.4252°
True anomaly
259.88863°
Mean anomaly
259.9804°
Eccentric anomaly
259.93451°
Mean motion
0.24698 °/min
Orbital period
1,457.61 mins
BSTAR
0
Loading maneuver chart data...
Computing Atmospheric mass density...
Loading historical data...
Loading historical data...
Loading historical data...
Loading historical data...
Loading historical data...
Loading historical data...
Loading historical data...
Other satellites on launch #11 in the year 2001 (2001-03-08 UTC)

Documentation

Showing up to 5 results
|